Météo par heure à Juma

Ce jour, 20 Juin, Dimanche

Heure Température Précipitation Vent Pression Humidité
00:00 +26°C° 0 mm 6 m/s 703 mmHg 29%
01:00 +25°C° 0 mm 5 m/s 703 mmHg 31%
02:00 +23°C° 0 mm 5 m/s 703 mmHg 32%
03:00 +22°C° 0 mm 4 m/s 703 mmHg 32%
04:00 +21°C° 0 mm 4 m/s 703 mmHg 33%
05:00 +22°C° 0 mm 4 m/s 703 mmHg 30%
06:00 +25°C° 0 mm 5 m/s 703 mmHg 26%
07:00 +26°C° 0 mm 6 m/s 704 mmHg 23%
08:00 +27°C° 0 mm 6 m/s 704 mmHg 21%
09:00 +29°C° 0 mm 6 m/s 704 mmHg 19%
10:00 +32°C° 0 mm 7 m/s 704 mmHg 17%
11:00 +33°C° 0 mm 6 m/s 704 mmHg 16%
12:00 +34°C° 0 mm 6 m/s 704 mmHg 15%
13:00 +35°C° 0 mm 6 m/s 704 mmHg 14%
14:00 +34°C° 0 mm 7 m/s 703 mmHg 13%
15:00 +34°C° 0 mm 8 m/s 703 mmHg 12%
16:00 +34°C° 0 mm 9 m/s 703 mmHg 11%
17:00 +32°C° 0 mm 9 m/s 703 mmHg 13%
18:00 +31°C° 0 mm 8 m/s 703 mmHg 14%
19:00 +28°C° 0 mm 8 m/s 704 mmHg 15%
20:00 +27°C° 0 mm 7 m/s 704 mmHg 16%
21:00 +24°C° 0 mm 7 m/s 704 mmHg 16%
22:00 +23°C° 0 mm 6 m/s 704 mmHg 17%
23:00 +22°C° 0 mm 5 m/s 704 mmHg 19%

Demain, 21 Juin, Lundi

Heure Température Précipitation Vent Pression Humidité
00:00 +21°C° 0 mm 5 m/s 703 mmHg 20%
01:00 +21°C° 0 mm 4 m/s 703 mmHg 21%
02:00 +20°C° 0 mm 4 m/s 703 mmHg 22%
03:00 +20°C° 0 mm 4 m/s 703 mmHg 23%
04:00 +19°C° 0 mm 4 m/s 703 mmHg 23%
05:00 +21°C° 0 mm 5 m/s 704 mmHg 22%
06:00 +23°C° 0 mm 5 m/s 704 mmHg 20%
07:00 +25°C° 0 mm 5 m/s 705 mmHg 18%
08:00 +27°C° 0 mm 5 m/s 705 mmHg 16%
09:00 +29°C° 0 mm 5 m/s 705 mmHg 14%
10:00 +33°C° 0 mm 5 m/s 705 mmHg 12%
11:00 +34°C° 0 mm 5 m/s 705 mmHg 11%
12:00 +35°C° 0 mm 5 m/s 705 mmHg 10%
13:00 +36°C° 0 mm 5 m/s 705 mmHg 10%
14:00 +36°C° 0 mm 6 m/s 705 mmHg 9%
15:00 +36°C° 0 mm 6 m/s 705 mmHg 9%
16:00 +35°C° 0 mm 7 m/s 705 mmHg 9%
17:00 +34°C° 0 mm 7 m/s 705 mmHg 11%
18:00 +32°C° 0 mm 6 m/s 705 mmHg 12%
19:00 +29°C° 0 mm 5 m/s 705 mmHg 14%
20:00 +28°C° 0 mm 5 m/s 705 mmHg 15%
21:00 +27°C° 0 mm 4 m/s 705 mmHg 17%
22:00 +26°C° 0 mm 4 m/s 705 mmHg 19%
23:00 +25°C° 0 mm 4 m/s 705 mmHg 20%

Après-demain, 22 Juin, Mardi

Heure Température Précipitation Vent Pression Humidité
00:00 +25°C° 0 mm 4 m/s 704 mmHg 21%
01:00 +23°C° 0 mm 4 m/s 704 mmHg 23%
02:00 +24°C° 0 mm 3 m/s 704 mmHg 23%
03:00 +24°C° 0 mm 3 m/s 704 mmHg 24%
04:00 +24°C° 0 mm 3 m/s 704 mmHg 24%
05:00 +25°C° 0 mm 4 m/s 705 mmHg 24%
06:00 +27°C° 0 mm 4 m/s 705 mmHg 23%
07:00 +29°C° 0 mm 5 m/s 705 mmHg 23%
08:00 +30°C° 0 mm 5 m/s 705 mmHg 21%
09:00 +33°C° 0 mm 5 m/s 706 mmHg 20%
10:00 +35°C° 0 mm 5 m/s 706 mmHg 18%
11:00 +36°C° 0 mm 5 m/s 705 mmHg 17%
12:00 +37°C° 0 mm 5 m/s 705 mmHg 15%
13:00 +39°C° 0 mm 5 m/s 705 mmHg 14%
14:00 +38°C° 0 mm 6 m/s 705 mmHg 14%
15:00 +38°C° 0 mm 6 m/s 705 mmHg 14%
16:00 +38°C° 0 mm 7 m/s 705 mmHg 15%
17:00 +35°C° 0 mm 7 m/s 705 mmHg 14%
18:00 +33°C° 0 mm 7 m/s 705 mmHg 14%
19:00 +30°C° 0 mm 7 m/s 705 mmHg 14%
20:00 +29°C° 0 mm 7 m/s 705 mmHg 15%
21:00 +27°C° 0 mm 6 m/s 705 mmHg 16%
22:00 +26°C° 0 mm 5 m/s 705 mmHg 16%
23:00 +25°C° 0 mm 5 m/s 705 mmHg 18%

23 Juin, Mercredi

Heure Température Précipitation Vent Pression Humidité
00:00 +23°C° 0 mm 5 m/s 704 mmHg 20%
01:00 +22°C° 0 mm 4 m/s 704 mmHg 22%
02:00 +22°C° 0 mm 4 m/s 704 mmHg 24%
03:00 +21°C° 0 mm 4 m/s 704 mmHg 25%
04:00 +21°C° 0 mm 4 m/s 704 mmHg 27%
05:00 +22°C° 0 mm 5 m/s 705 mmHg 25%
06:00 +25°C° 0 mm 5 m/s 705 mmHg 23%
07:00 +26°C° 0 mm 6 m/s 705 mmHg 22%
08:00 +28°C° 0 mm 6 m/s 705 mmHg 19%
09:00 +30°C° 0 mm 5 m/s 706 mmHg 16%
10:00 +33°C° 0 mm 5 m/s 706 mmHg 14%
11:00 +35°C° 0 mm 5 m/s 706 mmHg 13%
12:00 +36°C° 0 mm 5 m/s 705 mmHg 12%
13:00 +37°C° 0 mm 5 m/s 705 mmHg 11%
14:00 +37°C° 0 mm 5 m/s 705 mmHg 11%
15:00 +38°C° 0 mm 6 m/s 705 mmHg 10%
16:00 +38°C° 0 mm 6 m/s 705 mmHg 10%
17:00 +35°C° 0 mm 6 m/s 705 mmHg 11%
18:00 +33°C° 0 mm 6 m/s 705 mmHg 12%
19:00 +30°C° 0 mm 6 m/s 705 mmHg 14%
20:00 +29°C° 0 mm 6 m/s 705 mmHg 15%
21:00 +27°C° 0 mm 5 m/s 705 mmHg 16%
22:00 +26°C° 0 mm 5 m/s 705 mmHg 17%
23:00 +25°C° 0 mm 4 m/s 705 mmHg 19%

24 Juin, Jeudi

Heure Température Précipitation Vent Pression Humidité
00:00 +25°C° 0 mm 4 m/s 704 mmHg 20%
01:00 +23°C° 0 mm 4 m/s 704 mmHg 22%
02:00 +22°C° 0 mm 4 m/s 704 mmHg 23%
03:00 +22°C° 0 mm 4 m/s 704 mmHg 23%
04:00 +22°C° 0 mm 4 m/s 704 mmHg 24%
05:00 +23°C° 0 mm 5 m/s 704 mmHg 22%
06:00 +26°C° 0 mm 5 m/s 705 mmHg 21%
07:00 +28°C° 0 mm 5 m/s 705 mmHg 19%
08:00 +30°C° 0 mm 6 m/s 705 mmHg 17%
09:00 +33°C° 0 mm 6 m/s 705 mmHg 15%
10:00 +35°C° 0 mm 6 m/s 705 mmHg 13%
11:00 +36°C° 0 mm 6 m/s 705 mmHg 13%
12:00 +38°C° 0 mm 6 m/s 705 mmHg 12%
13:00 +39°C° 0 mm 6 m/s 705 mmHg 12%
14:00 +39°C° 0 mm 7 m/s 705 mmHg 12%
15:00 +38°C° 0 mm 7 m/s 704 mmHg 13%
16:00 +38°C° 0 mm 7 m/s 704 mmHg 13%
17:00 +36°C° 0 mm 7 m/s 704 mmHg 15%
18:00 +34°C° 0 mm 6 m/s 704 mmHg 17%
19:00 +32°C° 0 mm 5 m/s 703 mmHg 20%
20:00 +30°C° 0 mm 5 m/s 703 mmHg 22%
21:00 +29°C° 0 mm 4 m/s 703 mmHg 24%
22:00 +28°C° 0 mm 4 m/s 703 mmHg 25%
23:00 +27°C° 0 mm 3 m/s 703 mmHg 26%

25 Juin, Vendredi

Heure Température Précipitation Vent Pression Humidité
00:00 +27°C° 0 mm 3 m/s 702 mmHg 27%
01:00 +26°C° 0 mm 3 m/s 702 mmHg 28%
02:00 +26°C° 0 mm 3 m/s 702 mmHg 28%
03:00 +25°C° 0 mm 3 m/s 702 mmHg 29%
04:00 +25°C° 0 mm 3 m/s 702 mmHg 30%
05:00 +27°C° 0 mm 4 m/s 702 mmHg 29%
06:00 +29°C° 0 mm 5 m/s 703 mmHg 28%
07:00 +30°C° 0 mm 5 m/s 703 mmHg 27%
08:00 +33°C° 0 mm 6 m/s 703 mmHg 25%
09:00 +34°C° 0 mm 7 m/s 703 mmHg 23%
10:00 +37°C° 0 mm 8 m/s 703 mmHg 21%
11:00 +36°C° 0 mm 7 m/s 703 mmHg 21%
12:00 +38°C° 0 mm 7 m/s 703 mmHg 20%
13:00 +38°C° 0 mm 7 m/s 703 mmHg 19%
14:00 +38°C° 0 mm 7 m/s 702 mmHg 19%
15:00 +38°C° 0 mm 7 m/s 702 mmHg 18%
16:00 +38°C° 0 mm 7 m/s 702 mmHg 18%
17:00 +35°C° 0 mm 7 m/s 702 mmHg 19%
18:00 +34°C° 0 mm 7 m/s 702 mmHg 20%
19:00 +32°C° 0 mm 7 m/s 702 mmHg 21%
20:00 +30°C° 0 mm 6 m/s 702 mmHg 21%
21:00 +28°C° 0 mm 6 m/s 702 mmHg 21%
22:00 +27°C° 0 mm 5 m/s 702 mmHg 22%
23:00 +26°C° 0 mm 4 m/s 702 mmHg 22%
Voir plus

Nous avons besoin de votre consentement

Meteoprog et ses fournisseurs de services peuvent stocker et accéder à des données personnelles telles que des cookies, des identifiants d'appareils ou d'autres technologies similaires sur votre appareil et traiter ces données pour personnaliser le contenu et les publicités, ainsi que pour fournir des fonctionnalités de médias sociaux et analyser le trafic.

  • Stocker et/ou accéder à des informations sur votre appareil

    Des cookies, des identifiants d'appareils ou d'autres informations peuvent être stockés ou accessibles sur votre appareil aux fins indiquées ci-dessus.

  • Annonces et contenus personnalisés, mesure des annonces et des contenus, connaissance de l'audience et développement de produits

    Les annonces et le contenu peuvent être personnalisés en fonction d'un profil. D'autres données peuvent être ajoutées pour mieux personnaliser les annonces et le contenu. Les performances des publicités et du contenu peuvent être mesurées. Il est possible d'obtenir des informations sur le public qui a vu les publicités et le contenu. Ces données peuvent être utilisées pour développer ou améliorer l'expérience de l'utilisateur, les systèmes et les logiciels.

En cliquant sur "J'accepte", vous autorisez l'utilisation de cookies, des identifiants d'appareils, des balises web ou d'autres technologies similaires. Vos paramètres peuvent être modifiés dans le navigateur de votre appareil.

Dans certains cas, des intérêts légitimes peuvent être invoqués plutôt qu'un consentement. Vous pouvez en savoir plus à ce sujet dans notre Politique de confidentialité et de cookies.